This is the latest recevied weather packets stored in our database for station/object K8WEH. If no packets are shown the sender has not sent any weather packets the latest 10 day(s).
| Time | Temp. | Humidity | Pressure | Rain* | Wind** | Luminosity | Snow |
|---|---|---|---|---|---|---|---|
| 1777640418 | 7.78° C | 77% | 1015.3 hPa | 0 mm | - | - | - |
| 1777640119 | 7.78° C | 77% | 1015.4 hPa | 0 mm | - | - | - |
| 1777639815 | 7.22° C | 77% | 1015.6 hPa | 0 mm | - | - | - |
| 1777639513 | 7.22° C | 77% | 1015.7 hPa | 0 mm | - | - | - |
| 1777639212 | 6.67° C | 76% | 1015.7 hPa | 0 mm | - | - | - |
| 1777638913 | 6.67° C | 74% | 1015.8 hPa | 0 mm | - | - | - |
| 1777638626 | 6.67° C | 72% | 1015.8 hPa | 0 mm | - | - | - |
| 1777638308 | 6.11° C | 71% | 1015.6 hPa | 0 mm | - | - | - |
| 1777638006 | 6.11° C | 69% | 1015.6 hPa | 0 mm | - | - | - |
| 1777637705 | 5.56° C | 69% | 1015.6 hPa | 0 mm | - | - | - |
| 1777637404 | 5.56° C | 68% | 1015.7 hPa | 0 mm | - | - | - |
| 1777637103 | 5.56° C | 65% | 1015.8 hPa | 0 mm | - | - | - |
| 1777636802 | 5° C | 62% | 1015.8 hPa | 0 mm | - | - | - |
| 1777636560 | 5° C | 63% | 1015.8 hPa | 0 mm | - | - | - |
| 1777636259 | 5° C | 63% | 1016 hPa | 0 mm | - | - | - |
| 1777635960 | 5° C | 62% | 1016 hPa | 0 mm | - | - | - |
| 1777635658 | 4.44° C | 61% | 1015.9 hPa | 0 mm | - | - | - |
| 1777635358 | 4.44° C | 62% | 1016 hPa | 0 mm | - | - | - |
| 1777635061 | 4.44° C | 61% | 1016 hPa | 0 mm | - | - | - |
| 1777634755 | 4.44° C | 61% | 1015.8 hPa | 0 mm | - | - | - |
| 1777634456 | 4.44° C | 60% | 1015.8 hPa | 0 mm | - | - | - |
| 1777634155 | 4.44° C | 59% | 1015.8 hPa | 0 mm | - | - | - |
| 1777633854 | 3.89° C | 60% | 1015.8 hPa | 0 mm | - | - | - |
| 1777633556 | 3.89° C | 60% | 1015.9 hPa | 0 mm | - | - | - |
| 1777633254 | 3.89° C | 60% | 1016 hPa | 0 mm | - | - | - |
* Rain latest hour (hover to see other rain measurements)
** Current wind speed in m/s (hover to see current wind gust speed)